This demonstration page uses our WeatherBlox Daily Observations layout. Learn more.

Left ArrowRight Arrow

Hourly Observations for August 20, 2015

Temp ( °F °C ) Dew Point ( °F °C ) Humidity (%) Winds ( mph kmh ) Pressure ( in mb ) Visibility ( mi km ) Precip ( " mm )
12:54 am 00:54 Clear 60 15.6 54 12.2 80 80 Calm 29.93 1013 10 16.0934 0 0
1:54 am 01:54 Clear 56 13.3 52 11.1 87 87 Calm 29.92 1013 10 16.0934 0 0
2:54 am 02:54 Clear 55 12.8 53 11.7 93 93 Calm 29.92 1013 10 16.0934 0 0
3:54 am 03:54 Clear 56 13.3 53 11.7 90 90 SSE 3 6 29.92 1013 10 16.0934 0 0
4:54 am 04:54 Clear 55 12.8 52 11.1 90 90 Calm 29.93 1014 10 16.0934 0 0
5:54 am 05:54 Clear 54 12.2 52 11.1 93 93 SSW 6 9 29.95 1014 10 16.0934 0 0
6:54 am 06:54 Sunny 54 12.2 52 11.1 93 93 Calm 29.95 1014 9 14.48406 0 0
7:54 am 07:54 Sunny 56 13.3 54 12.2 93 93 SSE 3 6 29.96 1014 9 14.48406 0 0
8:54 am 08:54 Sunny 61 16.1 55 12.8 81 81 S 5 7 29.95 1014 10 16.0934 0 0
9:54 am 09:54 Sunny 67 19.4 57 13.9 71 71 SW 5 7 29.95 1014 10 16.0934 0 0
10:54 am 10:54 Sunny 73 22.8 55 12.8 53 53 WSW 5 7 29.94 1014 10 16.0934 0 0
11:54 am 11:54 Sunny 77 25 57 13.9 50 50 WSW 8 13 29.93 1014 10 16.0934 0 0
12:54 pm 12:54 Sunny 81 27.2 58 14.4 45 45 SSW 8 13 29.91 1013 10 16.0934 0 0
1:54 pm 13:54 Sunny 83 28.3 56 13.3 40 40 SSW 15 24 29.89 1012 10 16.0934 0 0
2:54 pm 14:54 Sunny 84 28.9 53 11.7 34 34 SSW 9 15 29.88 1012 10 16.0934 0 0
3:54 pm 15:54 Sunny 84 28.9 53 11.7 34 34 SSW 16 26 29.86 1011 10 16.0934 0 0
4:54 pm 16:54 Partly Cloudy 83 28.3 53 11.7 36 36 SSW 15 24 29.85 1011 10 16.0934 0 0
5:54 pm 17:54 Sunny 81 27.2 55 12.8 41 41 S 12 19 29.85 1011 10 16.0934 0 0
6:54 pm 18:54 Cloudy 80 26.7 56 13.3 44 44 S 13 20 29.85 1011 10 16.0934 0 0
7:54 pm 19:54 Cloudy 78 25.6 56 13.3 47 47 S 13 20 29.86 1011 10 16.0934 0 0
8:54 pm 20:54 Mostly Cloudy 74 23.3 55 12.8 52 52 S 13 20 29.87 1012 10 16.0934 0 0
9:54 pm 21:54 Clear 72 22.2 54 12.2 53 53 S 12 19 29.88 1012 10 16.0934 0 0
10:54 pm 22:54 Clear 71 21.7 53 11.7 53 53 S 13 20 29.89 1012 10 16.0934 0 0
11:54 pm 23:54 Clear 70 21.1 53 11.7 55 55 SSW 13 20 29.89 1012 10 16.0934 0 0

Powered by AerisWeather